Regional Weather Roundup
Issued by NWS

Home | Current Version | Previous Version | Text Only | Print | Product List | Glossary On
Versions: 1 2 3 4 5 6 7 8 9 10 11 12 13 14 15 16 17 18 19 20 21 22 23 24 25 26 27 28 29 30 31 32 33 34 35 36 37 38 39 40 41 42 43 44 45 46 47 48 49 50
000
ASUS43 KDTX 260110
RWRMI
MICHIGAN HOURLY REGIONAL WEATHER ROUNDUP
NATIONAL WEATHER SERVICE DETROIT/PONTIAC MI
800 PM EST SUN JAN 25 2015

NOTE: "FAIR" INDICATES FEW OR NO CLOUDS BELOW 12,000 FEET WITH NO
SIGNIFICANT WEATHER AND/OR OBSTRUCTION TO VISIBILITY.

MIZ047>049-052>055-059>063-066>070-074>076-081>083-260200-
SOUTHEAST LOWER MICHIGAN

CITY           SKY/WX    TMP DP  RH WIND       PRES   REMARKS
ADRIAN         CLOUDY    21   9  59 E18       29.93R
ALMA           CLOUDY    18  12  78 NE9       30.03R
ANN ARBOR      CLOUDY    19   8  62 NE17      29.95R
BAD AXE        FLURRIES  17  12  83 NE8       30.04S
DETROIT CITY   CLOUDY    19   5  54 NE12G21   29.99R
DETROIT        CLOUDY    20   9  62 N10G21    29.97R
FLINT          MOCLDY    18   9  68 NE10      30.00R
GROSSE ILE     CLOUDY    19  10  68 NE16      29.96R
HILLSDALE      CLOUDY    22   9  57 E12       29.89R
HOWELL         MOCLDY    17   7  65 NE12G17   29.96R

CITY           SKY/WX    TMP DP  RH WIND       PRES   REMARKS
JACKSON        CLOUDY    20   5  52 NE13      29.93R
LAMBERTVILLE   CLOUDY    21   9  58 NE12G17   29.94S
LANSING        MOCLDY    18  10  71 NE10      29.99R
LAPEER         NOT AVBL
MASON          CLOUDY    18   6  60 NE17G23   29.96S
MONROE         CLOUDY    19  10  68 NE9       29.94R
MT. CLEMENS    MOCLDY    17   7  65 NE12      29.97R
PONTIAC        CLOUDY    17   8  67 NE12      29.95S
PORT HOPE        N/A     20  12  71 NE16      30.05R
PORT HURON     MOCLDY    18  10  73 NE10      30.00R
TRI CITIES     CLOUDY    20  11  68 NE18      30.04R
YPSILANTI      CLOUDY    22   8  55 NE17      29.96R
$$
MIZ043>046-050>051-056>058-064>065-071>073-077>080-260200-
SOUTHWEST LOWER MICHIGAN

CITY           SKY/WX    TMP DP  RH WIND       PRES   REMARKS
BATTLE CREEK   CLOUDY    24  10  55 NE15G21   29.94R
BENTON HARBOR  CLOUDY    23  14  68 NE10G17   29.96R
BIG RAPIDS     PTCLDY    17   6  60 NE6       30.00S
COLDWATER      MOCLDY    23  14  68 NE13      29.91R
HOLLAND        PTCLDY    21  10  62 NE7       29.99R
GRAND RAPIDS   PTCLDY    19  10  68 NE17      29.99R
KALAMAZOO      MOCLDY    22  13  68 NE9       29.95R
MARSHALL       MOCLDY    20  10  64 NE7       29.93R
MUSKEGON       PTCLDY    21   7  54 NE9       30.02R
$$
MIZ016>042-260200-
NORTHERN LOWER MICHIGAN

CITY           SKY/WX    TMP DP  RH WIND       PRES   REMARKS
ALPENA         PTCLDY     7   1  76 CALM      30.10R
BEAVER ISLAND  CLEAR      0  -3  84 CALM      30.10R
BELLAIRE       CLEAR      9   3  76 CALM      30.09R
CADILLAC       PTCLDY     6  -3  66 CALM      29.98S
CHARLEVOIX     CLEAR     11   4  75 E6        30.12R
FRANKFORT      CLEAR     14   9  81 NE7       30.07R
GAYLORD        PTCLDY     8   2  76 NE6       30.02R
GRAYLING       PTCLDY     3  -3  75 CALM      30.03R
HARBOR SPRINGS PTCLDY     8   2  77 CALM      30.09R
HOUGHTON LAKE  PTCLDY    11   1  64 NE7       30.02S
MANISTEE       CLEAR     12   0  57 CALM      30.05S
OSCODA         CLOUDY    15   7  72 N6        30.06S
PELLSTON       PTCLDY     0  -4  83 CALM      30.11R
TRAVERSE CITY  CLEAR     12   4  70 E5        30.06R
$$
MIZ007>008-015-260200-
EASTERN UPPER MICHIGAN

CITY           SKY/WX    TMP DP  RH WIND       PRES   REMARKS
KINROSS        PTCLDY     0  -6  78 CALM      30.09S
MACKINAC ISLAN PTCLDY     7  -2  67 E5        30.10R
NEWBERRY       PTCLDY     1  -4  78 E3        30.08R
S. S. MARIE    MOCLDY     2  -6  69 CALM      30.10R
$$
MIZ004>006-011>014-085-260200-
CENTRAL UPPER MICHIGAN

CITY           SKY/WX    TMP DP  RH WIND       PRES   REMARKS
MANISTIQUE     PTCLDY     3   0  87 N5        30.08S
ESCANABA       PTCLDY    14   7  73 NE5       30.08R
MENOMINEE      CLEAR     10   7  85 CALM      30.07R
SAWYER-GWINN   FLURRIES  14   9  79 NE3       30.04R
$$
MIZ001>003-009>011-084-260200-
WESTERN UPPER MICHIGAN

CITY           SKY/WX    TMP DP  RH WIND       PRES   REMARKS
IRON MOUNTAIN  PTCLDY     6   2  83 CALM      30.03R
HOUGHTON       MOCLDY     3   0  87 CALM      30.06R
COPPER HARBOR    N/A      7   1  76 W8        30.11R
IRONWOOD       MOCLDY    10   9  92 CALM      30.02R
$$

ABBREVIATIONS USED IN REMARKS
   TC - TEMPERATURE IN CELSIUS
  WCI - WIND CHILL INDEX
   HX - HEAT INDEX
  VSB - VISIBILITY



USA.gov is the U.S. government's official web portal to all federal, state and local government web resources and services.